"Period start","avg(HW err(1)/warn(2) (#))","avg(Visibility (m))","avg(Weather code (#))","avg(Precip intensity (mm/h))","min(HW err(1)/warn(2) (#))","max(HW err(1)/warn(2) (#))","std(HW err(1)/warn(2) (#))","med(HW err(1)/warn(2) (#))","min(Visibility (m))","max(Visibility (m))","std(Visibility (m))","med(Visibility (m))","min(Weather code (#))","max(Weather code (#))","std(Weather code (#))","med(Weather code (#))","min(Precip intensity (mm/h))","max(Precip intensity (mm/h))","std(Precip intensity (mm/h))","med(Precip intensity (mm/h))"
2017-07-15 00:00:00,2,20986,2,0.00,2,2,0,2,7844,35399,7700,21792,0,4,2,0,0.00,0.00,0.00,0.00
2017-07-15 00:10:00,2,6024,3,0.00,2,2,0,2,4276,9371,1566,5889,0,4,2,4,0.00,0.00,0.00,0.00
2017-07-15 00:20:00,2,9316,4,0.00,2,2,0,2,3832,17665,4356,8784,4,4,0,4,0.00,0.00,0.00,0.00
2017-07-15 00:30:00,2,8664,4,0.00,2,2,0,2,5901,11974,2308,8277,4,4,0,4,0.00,0.00,0.00,0.00
2017-07-15 00:40:00,2,12742,4,0.00,2,2,0,2,6524,21872,5229,11492,4,4,0,4,0.00,0.00,0.00,0.00
2017-07-15 00:50:00,2,9033,4,0.00,2,2,0,2,4339,21328,5069,7203,4,4,0,4,0.00,0.00,0.00,0.00
2017-07-15 01:00:00,2,14868,4,0.00,2,2,0,2,8579,26866,5487,13356,4,4,0,4,0.00,0.00,0.00,0.00
2017-07-15 01:10:00,2,12411,0,0.00,2,2,0,2,3834,19618,4448,13245,0,4,1,0,0.00,0.00,0.00,0.00
2017-07-15 01:20:00,2,11142,4,0.00,2,2,0,2,5407,19252,4488,9950,4,4,0,4,0.00,0.00,0.00,0.00
2017-07-15 01:30:00,2,3979,4,0.00,2,2,0,2,3267,5505,747,3690,4,4,0,4,0.00,0.00,0.00,0.00
2017-07-15 01:40:00,2,4420,4,0.00,2,2,0,2,2394,9021,2096,3650,4,4,0,4,0.00,0.00,0.00,0.00
2017-07-15 01:50:00,2,16910,4,0.00,2,2,0,2,6486,34995,8936,14714,4,4,0,4,0.00,0.00,0.00,0.00
2017-07-15 02:00:00,2,40025,0,0.00,2,2,0,2,28592,50000,7891,40646,0,4,1,0,0.00,0.00,0.00,0.00
2017-07-15 02:10:00,2,39172,0,0.00,2,2,0,2,29789,49457,5829,40273,0,0,0,0,0.00,0.00,0.00,0.00
2017-07-15 02:20:00,2,22273,0,0.00,2,2,0,2,8632,38307,10283,26060,0,0,0,0,0.00,0.00,0.00,0.00
2017-07-15 02:30:00,2,26141,0,0.00,2,2,0,2,12524,48078,12914,20697,0,0,0,0,0.00,0.00,0.00,0.00
2017-07-15 02:40:00,2,40481,0,0.00,2,2,0,2,32878,50000,6689,38788,0,0,0,0,0.00,0.00,0.00,0.00
2017-07-15 02:50:00,2,35651,0,0.00,2,2,0,2,13246,50000,11406,37393,0,0,0,0,0.00,0.00,0.00,0.00
2017-07-15 03:00:00,2,29294,0,0.00,2,2,0,2,12907,48625,12057,29412,0,0,0,0,0.00,0.00,0.00,0.00
2017-07-15 03:10:00,2,41272,0,0.00,2,2,0,2,13057,50000,10522,45120,0,0,0,0,0.00,0.00,0.00,0.00
2017-07-15 03:20:00,2,33927,0,0.00,2,2,0,2,15663,50000,12378,30661,0,0,0,0,0.00,0.00,0.00,0.00
2017-07-15 03:30:00,2,18630,3,0.00,2,2,0,2,3950,42971,12301,19413,0,4,2,4,0.00,0.00,0.00,0.00
2017-07-15 03:40:00,2,31300,1,0.00,2,2,0,2,12631,45978,10194,33552,0,4,2,0,0.00,0.00,0.00,0.00
2017-07-15 03:50:00,2,17165,0,0.00,2,2,0,2,6247,26183,5774,18245,0,0,0,0,0.00,0.00,0.00,0.00
2017-07-15 04:00:00,2,7768,3,0.00,2,2,0,2,4483,13056,2820,6550,0,4,2,4,0.00,0.00,0.00,0.00
2017-07-15 04:10:00,2,17384,4,0.00,2,2,0,2,4560,30701,8897,17028,4,4,0,4,0.00,0.00,0.00,0.00
2017-07-15 04:20:00,2,20556,1,0.00,2,2,0,2,6537,46646,13631,15906,0,4,2,0,0.00,0.00,0.00,0.00
2017-07-15 04:30:00,2,10554,3,0.00,2,2,0,2,8318,14092,1859,10210,0,4,2,4,0.00,0.00,0.00,0.00
2017-07-15 04:40:00,2,17229,2,0.00,2,2,0,2,7329,29862,8134,14636,0,4,2,4,0.00,0.00,0.00,0.00
2017-07-15 04:50:00,2,14335,0,0.00,2,2,0,2,6976,25717,6032,11408,0,0,0,0,0.00,0.00,0.00,0.00
2017-07-15 05:00:00,2,18082,2,0.00,2,2,0,2,7359,45070,10672,14180,0,4,2,2,0.00,0.00,0.00,0.00
2017-07-15 05:10:00,2,16049,1,0.00,2,2,0,2,4050,34018,11765,12664,0,10,3,0,0.00,0.00,0.00,0.00
2017-07-15 05:20:00,2,12094,10,0.00,2,2,0,2,3595,20896,5912,11412,10,10,0,10,0.00,0.00,0.00,0.00
2017-07-15 05:30:00,2,25392,3,0.00,2,2,0,2,12279,50000,11962,23506,0,10,5,0,0.00,0.00,0.00,0.00
2017-07-15 05:40:00,2,6007,4,0.00,2,2,0,2,3883,9057,1919,5567,0,10,5,0,0.00,0.00,0.00,0.00
2017-07-15 05:50:00,2,4709,10,0.00,2,2,0,2,2362,13720,3612,2548,10,10,0,10,0.00,0.00,0.00,0.00
2017-07-15 06:00:00,2,2603,31,0.07,2,2,0,2,2015,3802,523,2416,10,61,23,25,0.00,0.35,0.11,0.00
2017-07-15 06:10:00,2,5336,25,0.03,2,2,0,2,2458,9130,2065,5140,10,61,23,10,0.00,0.20,0.06,0.00
2017-07-15 06:20:00,2,32361,10,0.00,2,2,0,2,4267,50000,18832,42028,10,10,0,10,0.00,0.00,0.00,0.00
2017-07-15 06:30:00,2,36522,1,0.00,2,2,0,2,8328,50000,15805,47592,0,10,3,0,0.00,0.00,0.00,0.00
2017-07-15 06:40:00,2,7799,8,0.00,2,2,0,2,2154,21667,5487,6212,0,10,4,10,0.00,0.00,0.00,0.00
2017-07-15 06:50:00,2,17893,5,0.00,2,2,0,2,6928,40268,10940,14097,0,10,5,5,0.00,0.00,0.00,0.00
2017-07-15 07:00:00,2,24145,0,0.00,2,2,0,2,8850,50000,14696,19770,0,0,0,0,0.00,0.00,0.00,0.00
2017-07-15 07:10:00,2,24395,0,0.00,2,2,0,2,4993,50000,17610,22144,0,0,0,0,0.00,0.00,0.00,0.00
2017-07-15 07:20:00,2,15744,0,0.00,2,2,0,2,4934,50000,12463,13530,0,0,0,0,0.00,0.00,0.00,0.00
2017-07-15 07:30:00,2,34950,0,0.00,2,2,0,2,13681,50000,10641,36334,0,0,0,0,0.00,0.00,0.00,0.00
2017-07-15 07:40:00,2,12315,4,0.00,2,2,0,2,4123,36822,10005,7419,0,10,5,0,0.00,0.00,0.00,0.00
2017-07-15 07:50:00,2,13631,10,0.00,2,2,0,2,1732,47972,17021,5167,10,10,0,10,0.00,0.00,0.00,0.00
2017-07-15 08:00:00,2,8470,10,0.00,2,2,0,2,2232,22664,5606,6600,10,10,0,10,0.00,0.00,0.00,0.00
2017-07-15 08:10:00,2,9709,10,0.00,2,2,0,2,1267,24259,6932,7711,10,10,0,10,0.00,0.00,0.00,0.00
2017-07-15 08:20:00,2,2560,10,0.00,2,2,0,2,1508,4613,819,2432,10,10,0,10,0.00,0.00,0.00,0.00
2017-07-15 08:30:00,2,11257,10,0.00,2,2,0,2,3284,37723,10243,7975,10,10,0,10,0.00,0.00,0.00,0.00
2017-07-15 08:40:00,2,15980,10,0.00,2,2,0,2,1605,40257,13891,11196,10,10,0,10,0.00,0.00,0.00,0.00
2017-07-15 08:50:00,2,37647,4,0.00,2,2,0,2,14490,50000,12855,42357,0,10,5,0,0.00,0.00,0.00,0.00
2017-07-15 09:00:00,2,35272,0,0.00,2,2,0,2,15047,50000,9828,35259,0,0,0,0,0.00,0.00,0.00,0.00
2017-07-15 09:10:00,2,49910,0,0.00,2,2,0,2,49095,50000,272,50000,0,0,0,0,0.00,0.00,0.00,0.00
2017-07-15 09:20:00,2,23403,0,0.00,2,2,0,2,6482,46962,14441,19611,0,0,0,0,0.00,0.00,0.00,0.00
2017-07-15 09:30:00,2,17333,0,0.00,2,2,0,2,5961,38060,10137,15794,0,0,0,0,0.00,0.00,0.00,0.00
2017-07-15 09:40:00,2,19651,0,0.00,2,2,0,2,11994,40518,9195,15126,0,0,0,0,0.00,0.00,0.00,0.00
2017-07-15 09:50:00,2,4643,6,0.00,2,2,0,2,2310,7153,1768,4634,0,10,5,10,0.00,0.00,0.00,0.00
2017-07-15 10:00:00,2,6440,16,0.17,2,2,0,2,1593,15630,4163,4554,10,40,12,10,0.00,1.10,0.35,0.00
2017-07-15 10:10:00,2,8576,10,0.00,2,2,0,2,3336,17908,4067,7958,10,10,0,10,0.00,0.00,0.00,0.00
2017-07-15 10:20:00,2,9540,10,0.00,2,2,0,2,5908,14787,2432,9214,10,10,0,10,0.00,0.00,0.00,0.00
2017-07-15 10:30:00,2,15634,9,0.00,2,2,0,2,7930,29476,6100,14828,0,10,3,10,0.00,0.00,0.00,0.00
2017-07-15 10:40:00,2,6561,6,0.00,2,2,0,2,3378,13219,2865,5947,0,10,5,10,0.00,0.00,0.00,0.00
2017-07-15 10:50:00,2,12113,10,0.00,2,2,0,2,3125,18545,5669,13707,10,10,0,10,0.00,0.00,0.00,0.00
2017-07-15 11:00:00,2,5368,10,0.00,2,2,0,2,2578,11546,3111,4010,10,10,0,10,0.00,0.00,0.00,0.00
2017-07-15 11:10:00,2,3742,19,0.02,2,2,0,2,2284,8054,1686,3101,10,41,14,10,0.00,0.10,0.03,0.00
2017-07-15 11:20:00,2,4855,28,0.16,2,2,0,2,1910,20188,5255,2861,10,51,19,25,0.00,1.10,0.33,0.00
2017-07-15 11:30:00,2,12648,10,0.00,2,2,0,2,3484,33488,8766,10554,10,10,0,10,0.00,0.00,0.00,0.00
2017-07-15 11:40:00,2,43619,4,0.00,2,2,0,2,27890,50000,8438,50000,0,10,5,0,0.00,0.00,0.00,0.00
2017-07-15 11:50:00,2,50000,0,0.00,2,2,0,2,50000,50000,0,50000,0,0,0,0,0.00,0.00,0.00,0.00
2017-07-15 12:00:00,2,50000,0,0.00,2,2,0,2,50000,50000,0,50000,0,0,0,0,0.00,0.00,0.00,0.00
2017-07-15 12:10:00,2,50000,0,0.00,2,2,0,2,50000,50000,0,50000,0,0,0,0,0.00,0.00,0.00,0.00
2017-07-15 12:20:00,2,50000,0,0.00,2,2,0,2,50000,50000,0,50000,0,0,0,0,0.00,0.00,0.00,0.00
2017-07-15 12:30:00,2,50000,0,0.00,2,2,0,2,50000,50000,0,50000,0,0,0,0,0.00,0.00,0.00,0.00
2017-07-15 12:40:00,2,50000,0,0.00,2,2,0,2,50000,50000,0,50000,0,0,0,0,0.00,0.00,0.00,0.00
2017-07-15 12:50:00,2,50000,0,0.00,2,2,0,2,50000,50000,0,50000,0,0,0,0,0.00,0.00,0.00,0.00
2017-07-15 13:00:00,2,50000,0,0.00,2,2,0,2,50000,50000,0,50000,0,0,0,0,0.00,0.00,0.00,0.00
2017-07-15 13:10:00,2,50000,0,0.00,2,2,0,2,50000,50000,0,50000,0,0,0,0,0.00,0.00,0.00,0.00
2017-07-15 13:20:00,2,47572,0,0.00,2,2,0,2,37939,50000,4423,50000,0,0,0,0,0.00,0.00,0.00,0.00
2017-07-15 13:30:00,2,50000,0,0.00,2,2,0,2,50000,50000,0,50000,0,0,0,0,0.00,0.00,0.00,0.00
2017-07-15 13:40:00,2,26842,0,0.00,2,2,0,2,11163,50000,15594,19915,0,0,0,0,0.00,0.00,0.00,0.00
2017-07-15 13:50:00,2,35930,0,0.00,2,2,0,2,7900,50000,16689,45639,0,0,0,0,0.00,0.00,0.00,0.00
2017-07-15 14:00:00,2,50000,0,0.00,2,2,0,2,50000,50000,0,50000,0,0,0,0,0.00,0.00,0.00,0.00
2017-07-15 14:10:00,2,50000,0,0.00,2,2,0,2,50000,50000,0,50000,0,0,0,0,0.00,0.00,0.00,0.00
2017-07-15 14:20:00,2,50000,0,0.00,2,2,0,2,50000,50000,0,50000,0,0,0,0,0.00,0.00,0.00,0.00
2017-07-15 14:30:00,2,50000,0,0.00,2,2,0,2,50000,50000,0,50000,0,0,0,0,0.00,0.00,0.00,0.00
2017-07-15 14:40:00,2,50000,0,0.00,2,2,0,2,50000,50000,0,50000,0,0,0,0,0.00,0.00,0.00,0.00
2017-07-15 14:50:00,2,50000,0,0.00,2,2,0,2,50000,50000,0,50000,0,0,0,0,0.00,0.00,0.00,0.00
2017-07-15 15:00:00,2,50000,0,0.00,2,2,0,2,50000,50000,0,50000,0,0,0,0,0.00,0.00,0.00,0.00
2017-07-15 15:10:00,2,50000,0,0.00,2,2,0,2,50000,50000,0,50000,0,0,0,0,0.00,0.00,0.00,0.00
2017-07-15 15:20:00,2,50000,0,0.00,2,2,0,2,50000,50000,0,50000,0,0,0,0,0.00,0.00,0.00,0.00
2017-07-15 15:30:00,2,50000,0,0.00,2,2,0,2,50000,50000,0,50000,0,0,0,0,0.00,0.00,0.00,0.00
2017-07-15 15:40:00,2,50000,0,0.00,2,2,0,2,50000,50000,0,50000,0,0,0,0,0.00,0.00,0.00,0.00
2017-07-15 15:50:00,2,50000,0,0.00,2,2,0,2,50000,50000,0,50000,0,0,0,0,0.00,0.00,0.00,0.00
2017-07-15 16:00:00,2,50000,0,0.00,2,2,0,2,50000,50000,0,50000,0,0,0,0,0.00,0.00,0.00,0.00
2017-07-15 16:10:00,2,50000,0,0.00,2,2,0,2,50000,50000,0,50000,0,0,0,0,0.00,0.00,0.00,0.00
2017-07-15 16:20:00,2,50000,0,0.00,2,2,0,2,50000,50000,0,50000,0,0,0,0,0.00,0.00,0.00,0.00
2017-07-15 16:30:00,2,49931,0,0.00,2,2,0,2,49310,50000,207,50000,0,0,0,0,0.00,0.00,0.00,0.00
2017-07-15 16:40:00,2,49600,0,0.00,2,2,0,2,48244,50000,592,50000,0,0,0,0,0.00,0.00,0.00,0.00
2017-07-15 16:50:00,2,50000,0,0.00,2,2,0,2,50000,50000,0,50000,0,0,0,0,0.00,0.00,0.00,0.00
2017-07-15 17:00:00,2,50000,0,0.00,2,2,0,2,50000,50000,0,50000,0,0,0,0,0.00,0.00,0.00,0.00
2017-07-15 17:10:00,2,50000,0,0.00,2,2,0,2,50000,50000,0,50000,0,0,0,0,0.00,0.00,0.00,0.00
2017-07-15 17:20:00,2,50000,0,0.00,2,2,0,2,50000,50000,0,50000,0,0,0,0,0.00,0.00,0.00,0.00
2017-07-15 17:30:00,2,50000,0,0.00,2,2,0,2,50000,50000,0,50000,0,0,0,0,0.00,0.00,0.00,0.00
2017-07-15 17:40:00,2,50000,0,0.00,2,2,0,2,50000,50000,0,50000,0,0,0,0,0.00,0.00,0.00,0.00
2017-07-15 17:50:00,2,50000,0,0.00,2,2,0,2,50000,50000,0,50000,0,0,0,0,0.00,0.00,0.00,0.00
2017-07-15 18:00:00,2,49798,0,0.00,2,2,0,2,47975,50000,608,50000,0,0,0,0,0.00,0.00,0.00,0.00
2017-07-15 18:10:00,2,50000,0,0.00,2,2,0,2,50000,50000,0,50000,0,0,0,0,0.00,0.00,0.00,0.00
2017-07-15 18:20:00,2,50000,0,0.00,2,2,0,2,50000,50000,0,50000,0,0,0,0,0.00,0.00,0.00,0.00
2017-07-15 18:30:00,2,48975,0,0.00,2,2,0,2,44311,50000,2065,50000,0,0,0,0,0.00,0.00,0.00,0.00
2017-07-15 18:40:00,2,50000,0,0.00,0,2,1,2,50000,50000,0,50000,0,0,0,0,0.00,0.00,0.00,0.00
2017-07-15 18:50:00,1,45316,0,0.00,0,2,1,2,30368,50000,7491,50000,0,0,0,0,0.00,0.00,0.00,0.00
2017-07-15 19:00:00,2,50000,0,0.00,2,2,0,2,50000,50000,0,50000,0,0,0,0,0.00,0.00,0.00,0.00
2017-07-15 19:10:00,2,46446,0,0.00,2,2,0,2,33901,50000,5665,49966,0,0,0,0,0.00,0.00,0.00,0.00
2017-07-15 19:20:00,2,49912,0,0.00,2,2,0,2,49187,50000,242,50000,0,0,0,0,0.00,0.00,0.00,0.00
2017-07-15 19:30:00,2,49876,0,0.00,2,2,0,2,49202,50000,261,50000,0,0,0,0,0.00,0.00,0.00,0.00
2017-07-15 19:40:00,2,48843,0,0.00,2,2,0,2,42260,50000,2323,50000,0,0,0,0,0.00,0.00,0.00,0.00
2017-07-15 19:50:00,2,49648,0,0.00,2,2,0,2,47050,50000,882,50000,0,0,0,0,0.00,0.00,0.00,0.00
2017-07-15 20:00:00,2,50000,0,0.00,2,2,0,2,50000,50000,0,50000,0,0,0,0,0.00,0.00,0.00,0.00
2017-07-15 20:10:00,2,46999,0,0.00,2,2,0,2,41793,50000,3513,49435,0,0,0,0,0.00,0.00,0.00,0.00
2017-07-15 20:20:00,2,49660,0,0.00,2,2,0,2,46946,50000,911,50000,0,0,0,0,0.00,0.00,0.00,0.00
2017-07-15 20:30:00,2,49488,0,0.00,2,2,0,2,45602,50000,1313,50000,0,0,0,0,0.00,0.00,0.00,0.00
2017-07-15 20:40:00,2,48884,0,0.00,2,2,0,2,43887,50000,1869,50000,0,0,0,0,0.00,0.00,0.00,0.00
2017-07-15 20:50:00,2,49812,0,0.00,2,2,0,2,48119,50000,564,50000,0,0,0,0,0.00,0.00,0.00,0.00
2017-07-15 21:00:00,2,50000,0,0.00,2,2,0,2,50000,50000,0,50000,0,0,0,0,0.00,0.00,0.00,0.00
2017-07-15 21:10:00,2,48134,0,0.00,2,2,0,2,42327,50000,2671,49736,0,0,0,0,0.00,0.00,0.00,0.00
2017-07-15 21:20:00,2,47858,0,0.00,2,2,0,2,42390,50000,2934,50000,0,0,0,0,0.00,0.00,0.00,0.00
2017-07-15 21:30:00,2,49171,0,0.00,2,2,0,2,45570,50000,1413,50000,0,0,0,0,0.00,0.00,0.00,0.00
2017-07-15 21:40:00,2,49088,0,0.00,2,2,0,2,44544,50000,1616,49844,0,0,0,0,0.00,0.00,0.00,0.00
2017-07-15 21:50:00,2,48159,0,0.00,2,2,0,2,41752,50000,2860,50000,0,0,0,0,0.00,0.00,0.00,0.00
2017-07-15 22:00:00,2,48975,0,0.00,2,2,0,2,44311,50000,1805,50000,0,0,0,0,0.00,0.00,0.00,0.00
2017-07-15 22:10:00,2,49258,0,0.00,2,2,0,2,42668,50000,2197,50000,0,0,0,0,0.00,0.00,0.00,0.00
2017-07-15 22:20:00,2,43663,0,0.00,2,2,0,2,32808,50000,5496,46182,0,0,0,0,0.00,0.00,0.00,0.00
2017-07-15 22:30:00,2,47746,0,0.00,2,2,0,2,36328,50000,4517,50000,0,0,0,0,0.00,0.00,0.00,0.00
2017-07-15 22:40:00,2,42617,0,0.00,2,2,0,2,27863,50000,6935,42144,0,0,0,0,0.00,0.00,0.00,0.00
2017-07-15 22:50:00,2,47656,0,0.00,2,2,0,2,36528,50000,4044,49714,0,0,0,0,0.00,0.00,0.00,0.00
2017-07-15 23:00:00,2,47599,0,0.00,2,2,0,2,38534,50000,3431,49020,0,0,0,0,0.00,0.00,0.00,0.00
2017-07-15 23:10:00,2,47856,0,0.00,2,2,0,2,42384,50000,2622,49206,0,0,0,0,0.00,0.00,0.00,0.00
2017-07-15 23:20:00,2,41209,0,0.00,2,2,0,2,30812,50000,6278,39150,0,0,0,0,0.00,0.00,0.00,0.00
2017-07-15 23:30:00,2,43849,0,0.00,2,2,0,2,38339,50000,3736,44088,0,0,0,0,0.00,0.00,0.00,0.00
2017-07-15 23:40:00,2,39853,0,0.00,2,2,0,2,25489,50000,8895,41865,0,0,0,0,0.00,0.00,0.00,0.00
2017-07-15 23:50:00,2,45420,0,0.00,2,2,0,2,38697,50000,4402,45864,0,0,0,0,0.00,0.00,0.00,0.00
